Location: Moscow
(55.7500°N, 37.5830°E)
Time: 04:51:45
(UTC+03:00)

Vanguard 1 Rocket - Pass Details

Date: 08 December 2021
Orbit: 651 x 4225 km, 34.3° (Epoch: 26 January)

Event Time Altitude Azimuth Distance (km) Brightness Sun altitude
Exits shadow 02:21:43 21° 135° (SE) 4,141 10.6 -50.2°
Drops below altitude 10° 02:29:45 10° 109° (ESE) 5,854 11.7 -49.4°
Sets 02:36:55 0° 98° (E) 7,516 12.5 -48.6°
